Year,Month,Day,Hour,Minute,Value (Times are PST for temperature in C)
2007,10,24,00,00,14.70
2007,10,24,00,01,14.60
2007,10,24,00,02,14.60
2007,10,24,00,03,14.60
2007,10,24,00,04,14.60
2007,10,24,00,05,14.50
2007,10,24,00,06,14.50
2007,10,24,00,07,14.40
2007,10,24,00,08,14.40
2007,10,24,00,09,14.40
2007,10,24,00,10,14.30
2007,10,24,00,11,14.30
2007,10,24,00,12,14.20
2007,10,24,00,13,14.20
2007,10,24,00,14,14.20
2007,10,24,00,15,14.20
2007,10,24,00,16,14.10
2007,10,24,00,17,14.10
2007,10,24,00,18,14.10
2007,10,24,00,19,14.10
2007,10,24,00,20,14.10
2007,10,24,00,21,14.10
2007,10,24,00,22,14.10
2007,10,24,00,23,14.10
2007,10,24,00,24,14.10
2007,10,24,00,25,14.10
2007,10,24,00,26,14.10
2007,10,24,00,27,14.20
2007,10,24,00,28,14.20
2007,10,24,00,29,14.20
2007,10,24,00,30,14.20
2007,10,24,00,31,14.20
2007,10,24,00,32,14.20
2007,10,24,00,33,14.20
2007,10,24,00,34,14.20
2007,10,24,00,35,14.20
2007,10,24,00,36,14.20
2007,10,24,00,37,14.20
2007,10,24,00,38,14.20
2007,10,24,00,39,14.20
2007,10,24,00,40,14.20
2007,10,24,00,41,14.20
2007,10,24,00,42,14.20
2007,10,24,00,43,14.10
2007,10,24,00,44,14.10
2007,10,24,00,45,14.10
2007,10,24,00,46,14.10
2007,10,24,00,47,14.20
2007,10,24,00,48,14.20
2007,10,24,00,49,14.20
2007,10,24,00,50,14.20
2007,10,24,00,51,14.30
2007,10,24,00,52,14.40
2007,10,24,00,53,14.40
2007,10,24,00,54,14.40
2007,10,24,00,55,14.50
2007,10,24,00,56,14.50
2007,10,24,00,57,14.50
2007,10,24,00,58,14.50
2007,10,24,00,59,14.60
2007,10,24,01,00,14.60
2007,10,24,01,01,14.60
2007,10,24,01,02,14.60
2007,10,24,01,03,14.60
2007,10,24,01,04,14.60
2007,10,24,01,05,14.70
2007,10,24,01,06,14.70
2007,10,24,01,07,14.70
2007,10,24,01,08,14.70
2007,10,24,01,09,14.70
2007,10,24,01,10,14.70
2007,10,24,01,11,14.70
2007,10,24,01,12,14.70
2007,10,24,01,13,14.70
2007,10,24,01,14,14.70
2007,10,24,01,15,14.60
2007,10,24,01,16,14.50
2007,10,24,01,17,14.50
2007,10,24,01,18,14.40
2007,10,24,01,19,14.40
2007,10,24,01,20,14.30
2007,10,24,01,21,14.30
2007,10,24,01,22,14.30
2007,10,24,01,23,14.30
2007,10,24,01,24,14.30
2007,10,24,01,25,14.30
2007,10,24,01,26,14.40
2007,10,24,01,27,14.40
2007,10,24,01,28,14.50
2007,10,24,01,29,14.50
2007,10,24,01,30,14.50
2007,10,24,01,31,14.50
2007,10,24,01,32,14.50
2007,10,24,01,33,14.50
2007,10,24,01,34,14.50
2007,10,24,01,35,14.50
2007,10,24,01,36,14.40
2007,10,24,01,37,14.40
2007,10,24,01,38,14.40
2007,10,24,01,39,14.40
2007,10,24,01,40,14.40
2007,10,24,01,41,14.30
2007,10,24,01,42,14.40
2007,10,24,01,43,14.40
2007,10,24,01,44,14.40
2007,10,24,01,45,14.50
2007,10,24,01,46,14.50
2007,10,24,01,47,14.50
2007,10,24,01,48,14.50
2007,10,24,01,49,14.50
2007,10,24,01,50,14.50
2007,10,24,01,51,14.50
2007,10,24,01,52,14.50
2007,10,24,01,53,14.40
2007,10,24,01,54,14.40
2007,10,24,01,55,14.40
2007,10,24,01,56,14.40
2007,10,24,01,57,14.40
2007,10,24,01,58,14.40
2007,10,24,01,59,14.40
2007,10,24,02,00,14.40
2007,10,24,02,01,14.40
2007,10,24,02,02,14.40
2007,10,24,02,03,14.50
2007,10,24,02,04,14.50
2007,10,24,02,05,14.60
2007,10,24,02,06,14.60
2007,10,24,02,07,14.60
2007,10,24,02,08,14.70
2007,10,24,02,09,14.70
2007,10,24,02,10,14.80
2007,10,24,02,11,14.80
2007,10,24,02,12,14.90
2007,10,24,02,13,14.90
2007,10,24,02,14,14.90
2007,10,24,02,15,15.00
2007,10,24,02,16,15.00
2007,10,24,02,17,15.00
2007,10,24,02,18,15.00
2007,10,24,02,19,15.00
2007,10,24,02,20,15.00
2007,10,24,02,21,15.00
2007,10,24,02,22,15.00
2007,10,24,02,23,15.00
2007,10,24,02,24,15.00
2007,10,24,02,25,15.00
2007,10,24,02,26,15.00
2007,10,24,02,27,14.90
2007,10,24,02,28,14.80
2007,10,24,02,29,14.80
2007,10,24,02,30,14.80
2007,10,24,02,31,14.80
2007,10,24,02,32,14.80
2007,10,24,02,33,14.80
2007,10,24,02,34,14.80
2007,10,24,02,35,14.80
2007,10,24,02,36,14.80
2007,10,24,02,37,14.80
2007,10,24,02,38,14.80
2007,10,24,02,39,14.80
2007,10,24,02,40,14.90
2007,10,24,02,41,14.90
2007,10,24,02,42,15.00
2007,10,24,02,43,15.00
2007,10,24,02,44,15.00
2007,10,24,02,45,15.00
2007,10,24,02,46,15.00
2007,10,24,02,47,15.00
2007,10,24,02,48,15.00
2007,10,24,02,49,15.00
2007,10,24,02,50,15.00
2007,10,24,02,51,14.90
2007,10,24,02,52,14.80
2007,10,24,02,53,14.80
2007,10,24,02,54,14.70
2007,10,24,02,55,14.70
2007,10,24,02,56,14.80
2007,10,24,02,57,14.80
2007,10,24,02,58,14.80
2007,10,24,02,59,14.80
2007,10,24,03,00,14.80
2007,10,24,03,01,14.80
2007,10,24,03,02,14.80
2007,10,24,03,03,14.80
2007,10,24,03,04,14.70
2007,10,24,03,05,14.70
2007,10,24,03,06,14.60
2007,10,24,03,07,14.60
2007,10,24,03,08,14.50
2007,10,24,03,09,14.40
2007,10,24,03,10,14.40
2007,10,24,03,11,14.40
2007,10,24,03,12,14.30
2007,10,24,03,13,14.30
2007,10,24,03,14,14.20
2007,10,24,03,15,14.20
2007,10,24,03,16,14.20
2007,10,24,03,17,14.20
2007,10,24,03,18,14.20
2007,10,24,03,19,14.20
2007,10,24,03,20,14.20
2007,10,24,03,21,14.20
2007,10,24,03,22,14.20
2007,10,24,03,23,14.20
2007,10,24,03,24,14.20
2007,10,24,03,25,14.20
2007,10,24,03,26,14.20
2007,10,24,03,27,14.20
2007,10,24,03,28,14.20
2007,10,24,03,29,14.10
2007,10,24,03,30,14.10
2007,10,24,03,31,14.00
2007,10,24,03,32,14.00
2007,10,24,03,33,13.90
2007,10,24,03,34,13.90
2007,10,24,03,35,13.90
2007,10,24,03,36,13.90
2007,10,24,03,37,13.90
2007,10,24,03,38,13.90
2007,10,24,03,39,13.90
2007,10,24,03,40,13.90
2007,10,24,03,41,14.00
2007,10,24,03,42,14.10
2007,10,24,03,43,14.20
2007,10,24,03,44,14.20
2007,10,24,03,45,14.30
2007,10,24,03,46,14.30
2007,10,24,03,47,14.30
2007,10,24,03,48,14.30
2007,10,24,03,49,14.30
2007,10,24,03,50,14.30
2007,10,24,03,51,14.30
2007,10,24,03,52,14.30
2007,10,24,03,53,14.30
2007,10,24,03,54,14.30
2007,10,24,03,55,14.30
2007,10,24,03,56,14.30
2007,10,24,03,57,14.30
2007,10,24,03,58,14.30
2007,10,24,03,59,14.20
2007,10,24,04,00,14.20
2007,10,24,04,01,14.20
2007,10,24,04,02,14.10
2007,10,24,04,03,14.10
2007,10,24,04,04,14.00
2007,10,24,04,05,14.00
2007,10,24,04,06,13.90
2007,10,24,04,07,13.90
2007,10,24,04,08,13.80
2007,10,24,04,09,13.80
2007,10,24,04,10,13.70
2007,10,24,04,11,13.60
2007,10,24,04,12,13.50
2007,10,24,04,13,13.50
2007,10,24,04,14,13.40
2007,10,24,04,15,13.40
2007,10,24,04,16,13.30
2007,10,24,04,17,13.30
2007,10,24,04,18,13.20
2007,10,24,04,19,13.20
2007,10,24,04,20,13.10
2007,10,24,04,21,13.10
2007,10,24,04,22,13.00
2007,10,24,04,23,13.00
2007,10,24,04,24,12.90
2007,10,24,04,25,12.90
2007,10,24,04,26,12.80
2007,10,24,04,27,12.80
2007,10,24,04,28,12.80
2007,10,24,04,29,12.80
2007,10,24,04,30,12.70
2007,10,24,04,31,12.70
2007,10,24,04,32,12.70
2007,10,24,04,33,12.70
2007,10,24,04,34,12.70
2007,10,24,04,35,12.70
2007,10,24,04,36,12.70
2007,10,24,04,37,12.60
2007,10,24,04,38,12.60
2007,10,24,04,39,12.60
2007,10,24,04,40,12.60
2007,10,24,04,41,12.60
2007,10,24,04,42,12.60
2007,10,24,04,43,12.60
2007,10,24,04,44,12.60
2007,10,24,04,45,12.60
2007,10,24,04,46,12.60
2007,10,24,04,47,12.60
2007,10,24,04,48,12.50
2007,10,24,04,49,12.50
2007,10,24,04,50,12.50
2007,10,24,04,51,12.50
2007,10,24,04,52,12.50
2007,10,24,04,53,12.40
2007,10,24,04,54,12.40
2007,10,24,04,55,12.40
2007,10,24,04,56,12.40
2007,10,24,04,57,12.40
2007,10,24,04,58,12.40
2007,10,24,04,59,12.50
2007,10,24,05,00,12.60
2007,10,24,05,01,12.60
2007,10,24,05,02,12.70
2007,10,24,05,03,12.70
2007,10,24,05,04,12.70
2007,10,24,05,05,12.60
2007,10,24,05,06,12.60
2007,10,24,05,07,12.60
2007,10,24,05,08,12.60
2007,10,24,05,09,12.60
2007,10,24,05,10,12.70
2007,10,24,05,11,12.70
2007,10,24,05,12,12.80
2007,10,24,05,13,12.90
2007,10,24,05,14,13.00
2007,10,24,05,15,13.10
2007,10,24,05,16,13.20
2007,10,24,05,17,13.20
2007,10,24,05,18,13.30
2007,10,24,05,19,13.30
2007,10,24,05,20,13.30
2007,10,24,05,21,13.30
2007,10,24,05,22,13.30
2007,10,24,05,23,13.30
2007,10,24,05,24,13.30
2007,10,24,05,25,13.30
2007,10,24,05,26,13.30
2007,10,24,05,27,13.30
2007,10,24,05,28,13.30
2007,10,24,05,29,13.30
2007,10,24,05,30,13.30
2007,10,24,05,31,13.20
2007,10,24,05,32,13.20
2007,10,24,05,33,13.20
2007,10,24,05,34,13.20
2007,10,24,05,35,13.20
2007,10,24,05,36,13.10
2007,10,24,05,37,13.10
2007,10,24,05,38,13.20
2007,10,24,05,39,13.20
2007,10,24,05,40,13.20
2007,10,24,05,41,13.20
2007,10,24,05,42,13.20
2007,10,24,05,43,13.20
2007,10,24,05,44,13.20
2007,10,24,05,45,13.10
2007,10,24,05,46,13.10
2007,10,24,05,47,13.10
2007,10,24,05,48,13.10
2007,10,24,05,49,13.00
2007,10,24,05,50,13.00
2007,10,24,05,51,13.00
2007,10,24,05,52,12.90
2007,10,24,05,53,12.90
2007,10,24,05,54,12.80
2007,10,24,05,55,12.80
2007,10,24,05,56,12.70
2007,10,24,05,57,12.70
2007,10,24,05,58,12.70
2007,10,24,05,59,12.60
2007,10,24,06,00,12.60
2007,10,24,06,01,12.60
2007,10,24,06,02,12.70
2007,10,24,06,03,12.70
2007,10,24,06,04,12.70
2007,10,24,06,05,12.70
2007,10,24,06,06,12.70
2007,10,24,06,07,12.70
2007,10,24,06,08,12.60
2007,10,24,06,09,12.60
2007,10,24,06,10,12.60
2007,10,24,06,11,12.60
2007,10,24,06,12,12.60
2007,10,24,06,13,12.50
2007,10,24,06,14,12.50
2007,10,24,06,15,12.50
2007,10,24,06,16,12.50
2007,10,24,06,17,12.60
2007,10,24,06,18,12.60
2007,10,24,06,19,12.70
2007,10,24,06,20,12.70
2007,10,24,06,21,12.70
2007,10,24,06,22,12.70
2007,10,24,06,23,12.70
2007,10,24,06,24,12.70
2007,10,24,06,25,12.80
2007,10,24,06,26,12.80
2007,10,24,06,27,12.90
2007,10,24,06,28,13.00
2007,10,24,06,29,13.00
2007,10,24,06,30,13.00
2007,10,24,06,31,13.10
2007,10,24,06,32,13.10
2007,10,24,06,33,13.10
2007,10,24,06,34,13.10
2007,10,24,06,35,13.10
2007,10,24,06,36,13.10
2007,10,24,06,37,13.10
2007,10,24,06,38,13.10
2007,10,24,06,39,13.10
2007,10,24,06,40,13.10
2007,10,24,06,41,13.10
2007,10,24,06,42,13.10
2007,10,24,06,43,13.10
2007,10,24,06,44,13.10
2007,10,24,06,45,13.10
2007,10,24,06,46,13.10
2007,10,24,06,47,13.10
2007,10,24,06,48,13.20
2007,10,24,06,49,13.20
2007,10,24,06,50,13.20
2007,10,24,06,51,13.20
2007,10,24,06,52,13.20
2007,10,24,06,53,13.20
2007,10,24,06,54,13.20
2007,10,24,06,55,13.30
2007,10,24,06,56,13.30
2007,10,24,06,57,13.30
2007,10,24,06,58,13.30
2007,10,24,06,59,13.30
2007,10,24,07,00,13.30
2007,10,24,07,01,13.30
2007,10,24,07,02,13.30
2007,10,24,07,03,13.30
2007,10,24,07,04,13.30
2007,10,24,07,05,13.30
2007,10,24,07,06,13.30
2007,10,24,07,07,13.30
2007,10,24,07,08,13.20
2007,10,24,07,09,13.20
2007,10,24,07,10,13.20
2007,10,24,07,11,13.20
2007,10,24,07,12,13.20
2007,10,24,07,13,13.20
2007,10,24,07,14,13.20
2007,10,24,07,15,13.20
2007,10,24,07,16,13.10
2007,10,24,07,17,13.10
2007,10,24,07,18,13.10
2007,10,24,07,19,13.10
2007,10,24,07,20,13.10
2007,10,24,07,21,13.10
2007,10,24,07,22,13.10
2007,10,24,07,23,13.10
2007,10,24,07,24,13.10
2007,10,24,07,25,13.00
2007,10,24,07,26,13.00
2007,10,24,07,27,13.00
2007,10,24,07,28,13.00
2007,10,24,07,29,13.00
2007,10,24,07,30,12.90
2007,10,24,07,31,12.90
2007,10,24,07,32,12.90
2007,10,24,07,33,12.90
2007,10,24,07,34,12.90
2007,10,24,07,35,12.90
2007,10,24,07,36,12.80
2007,10,24,07,37,12.80
2007,10,24,07,38,12.80
2007,10,24,07,39,12.80
2007,10,24,07,40,12.80
2007,10,24,07,41,12.80
2007,10,24,07,42,12.80
2007,10,24,07,43,12.80
2007,10,24,07,44,12.80
2007,10,24,07,45,12.90
2007,10,24,07,46,12.90
2007,10,24,07,47,12.90
2007,10,24,07,48,12.90
2007,10,24,07,49,12.90
2007,10,24,07,50,12.90
2007,10,24,07,51,12.90
2007,10,24,07,52,12.90
2007,10,24,07,53,12.90
2007,10,24,07,54,12.90
2007,10,24,07,55,12.90
2007,10,24,07,56,12.90
2007,10,24,07,57,12.90
2007,10,24,07,58,12.90
2007,10,24,07,59,12.90
2007,10,24,08,00,12.90
2007,10,24,08,01,12.80
2007,10,24,08,02,12.80
2007,10,24,08,03,12.80
2007,10,24,08,04,12.80
2007,10,24,08,05,12.80
2007,10,24,08,06,12.80
2007,10,24,08,07,12.80
2007,10,24,08,08,12.80
2007,10,24,08,09,12.80
2007,10,24,08,10,12.80
2007,10,24,08,11,12.80
2007,10,24,08,12,12.80
2007,10,24,08,13,12.80
2007,10,24,08,14,12.90
2007,10,24,08,15,12.90
2007,10,24,08,16,12.90
2007,10,24,08,17,12.90
2007,10,24,08,18,13.00
2007,10,24,08,19,13.00
2007,10,24,08,20,13.00
2007,10,24,08,21,13.00
2007,10,24,08,22,13.00
2007,10,24,08,23,13.00
2007,10,24,08,24,13.10
2007,10,24,08,25,13.10
2007,10,24,08,26,13.10
2007,10,24,08,27,13.10
2007,10,24,08,28,13.10
2007,10,24,08,29,13.20
2007,10,24,08,30,13.20
2007,10,24,08,31,13.20
2007,10,24,08,32,13.10
2007,10,24,08,33,13.10
2007,10,24,08,34,13.10
2007,10,24,08,35,13.10
2007,10,24,08,36,13.10
2007,10,24,08,37,13.00
2007,10,24,08,38,13.00
2007,10,24,08,39,13.00
2007,10,24,08,40,12.90
2007,10,24,08,41,12.90
2007,10,24,08,42,12.90
2007,10,24,08,43,12.90
2007,10,24,08,44,12.80
2007,10,24,08,45,12.80
2007,10,24,08,46,12.80
2007,10,24,08,47,12.80
2007,10,24,08,48,12.70
2007,10,24,08,49,12.70
2007,10,24,08,50,12.70
2007,10,24,08,51,12.60
2007,10,24,08,52,12.60
2007,10,24,08,53,12.60
2007,10,24,08,54,12.60
2007,10,24,08,55,12.50
2007,10,24,08,56,12.50
2007,10,24,08,57,12.50
2007,10,24,08,58,12.40
2007,10,24,08,59,12.40
2007,10,24,09,00,12.40
2007,10,24,09,01,12.40
2007,10,24,09,02,12.40
2007,10,24,09,03,12.40
2007,10,24,09,04,12.40
2007,10,24,09,05,12.30
2007,10,24,09,06,12.30
2007,10,24,09,07,12.30
2007,10,24,09,08,12.30
2007,10,24,09,09,12.30
2007,10,24,09,10,12.30
2007,10,24,09,11,12.30
2007,10,24,09,12,12.30
2007,10,24,09,13,12.30
2007,10,24,09,14,12.30
2007,10,24,09,15,12.30
2007,10,24,09,16,12.30
2007,10,24,09,17,12.30
2007,10,24,09,18,12.30
2007,10,24,09,19,12.30
2007,10,24,09,20,12.30
2007,10,24,09,21,12.30
2007,10,24,09,22,12.30
2007,10,24,09,23,12.30
2007,10,24,09,24,12.20
2007,10,24,09,25,12.20
2007,10,24,09,26,12.20
2007,10,24,09,27,12.20
2007,10,24,09,28,12.20
2007,10,24,09,29,12.20
2007,10,24,09,30,12.20
2007,10,24,09,31,12.20
2007,10,24,09,32,12.10
2007,10,24,09,33,12.10
2007,10,24,09,34,12.10
2007,10,24,09,35,12.00
2007,10,24,09,36,12.00
2007,10,24,09,37,12.00
2007,10,24,09,38,11.90
2007,10,24,09,39,11.90
2007,10,24,09,40,11.90
2007,10,24,09,41,11.90
2007,10,24,09,42,11.80
2007,10,24,09,43,11.80
2007,10,24,09,44,11.80
2007,10,24,09,45,11.80
2007,10,24,09,46,11.80
2007,10,24,09,47,11.80
2007,10,24,09,48,11.80
2007,10,24,09,49,11.80
2007,10,24,09,50,11.80
2007,10,24,09,51,11.80
2007,10,24,09,52,11.80
2007,10,24,09,53,11.70
2007,10,24,09,54,11.70
2007,10,24,09,55,11.70
2007,10,24,09,56,11.60
2007,10,24,09,57,11.50
2007,10,24,09,58,11.40
2007,10,24,09,59,11.20
2007,10,24,10,00,11.10
2007,10,24,10,01,10.90
2007,10,24,10,02,10.80
2007,10,24,10,03,10.60
2007,10,24,10,04,10.50
2007,10,24,10,05,10.30
2007,10,24,10,06,10.20
2007,10,24,10,07,10.10
2007,10,24,10,08,10.00
2007,10,24,10,09,9.90
2007,10,24,10,10,9.90
2007,10,24,10,11,9.80
2007,10,24,10,12,9.80
2007,10,24,10,13,9.80
2007,10,24,10,14,9.70
2007,10,24,10,15,9.70
2007,10,24,10,16,9.70
2007,10,24,10,17,9.70
2007,10,24,10,18,9.70
2007,10,24,10,19,9.60
2007,10,24,10,20,9.60
2007,10,24,10,21,9.60
2007,10,24,10,22,9.60
2007,10,24,10,23,9.60
2007,10,24,10,24,9.60
2007,10,24,10,25,9.60
2007,10,24,10,26,9.60
2007,10,24,10,27,9.60
2007,10,24,10,28,9.60
2007,10,24,10,29,9.60
2007,10,24,10,30,9.60
2007,10,24,10,31,9.60
2007,10,24,10,32,9.60
2007,10,24,10,33,9.60
2007,10,24,10,34,9.60
2007,10,24,10,35,9.60
2007,10,24,10,36,9.60
2007,10,24,10,37,9.60
2007,10,24,10,38,9.60
2007,10,24,10,39,9.60
2007,10,24,10,40,9.60
2007,10,24,10,41,9.60
2007,10,24,10,42,9.60
2007,10,24,10,43,9.60
2007,10,24,10,44,9.50
2007,10,24,10,45,9.50
2007,10,24,10,46,9.50
2007,10,24,10,47,9.50
2007,10,24,10,48,9.40
2007,10,24,10,49,9.40
2007,10,24,10,50,9.40
2007,10,24,10,51,9.40
2007,10,24,10,52,9.40
2007,10,24,10,53,9.40
2007,10,24,10,54,9.30
2007,10,24,10,55,9.30
2007,10,24,10,56,9.30
2007,10,24,10,57,9.30
2007,10,24,10,58,9.30
2007,10,24,10,59,9.30
2007,10,24,11,00,9.30
2007,10,24,11,01,9.30
2007,10,24,11,02,9.20
2007,10,24,11,03,9.20
2007,10,24,11,04,9.20
2007,10,24,11,05,9.20
2007,10,24,11,06,9.20
2007,10,24,11,07,9.20
2007,10,24,11,08,9.20
2007,10,24,11,09,9.20
2007,10,24,11,10,9.20
2007,10,24,11,11,9.20
2007,10,24,11,12,9.20
2007,10,24,11,13,9.20
2007,10,24,11,14,9.20
2007,10,24,11,15,9.20
2007,10,24,11,16,9.20
2007,10,24,11,17,9.20
2007,10,24,11,18,9.20
2007,10,24,11,19,9.20
2007,10,24,11,20,9.20
2007,10,24,11,21,9.20
2007,10,24,11,22,9.20
2007,10,24,11,23,9.20
2007,10,24,11,24,9.20
2007,10,24,11,25,9.20
2007,10,24,11,26,9.20
2007,10,24,11,27,9.20
2007,10,24,11,28,9.20
2007,10,24,11,29,9.20
2007,10,24,11,30,9.20
2007,10,24,11,31,9.20
2007,10,24,11,32,9.20
2007,10,24,11,33,9.20
2007,10,24,11,34,9.20
2007,10,24,11,35,9.20
2007,10,24,11,36,9.20
2007,10,24,11,37,9.20
2007,10,24,11,38,9.20
2007,10,24,11,39,9.20
2007,10,24,11,40,9.30
2007,10,24,11,41,9.30
2007,10,24,11,42,9.30
2007,10,24,11,43,9.30
2007,10,24,11,44,9.30
2007,10,24,11,45,9.30
2007,10,24,11,46,9.20
2007,10,24,11,47,9.20
2007,10,24,11,48,9.30
2007,10,24,11,49,9.30
2007,10,24,11,50,9.30
2007,10,24,11,51,9.30
2007,10,24,11,52,9.30
2007,10,24,11,53,9.30
2007,10,24,11,54,9.30
2007,10,24,11,55,9.30
2007,10,24,11,56,9.30
2007,10,24,11,57,9.30
2007,10,24,11,58,9.30
2007,10,24,11,59,9.30
2007,10,24,12,00,9.30
2007,10,24,12,01,9.30
2007,10,24,12,02,9.30
2007,10,24,12,03,9.30
2007,10,24,12,04,9.30
2007,10,24,12,05,9.30
2007,10,24,12,06,9.30
2007,10,24,12,07,9.30
2007,10,24,12,08,9.30
2007,10,24,12,09,9.30
2007,10,24,12,10,9.30
2007,10,24,12,11,9.30
2007,10,24,12,12,9.30
2007,10,24,12,13,9.30
2007,10,24,12,14,9.30
2007,10,24,12,15,9.30
2007,10,24,12,16,9.30
2007,10,24,12,17,9.30
2007,10,24,12,18,9.30
2007,10,24,12,19,9.30
2007,10,24,12,20,9.40
2007,10,24,12,21,9.40
2007,10,24,12,22,9.40
2007,10,24,12,23,9.50
2007,10,24,12,24,9.50
2007,10,24,12,25,9.60
2007,10,24,12,26,9.60
2007,10,24,12,27,9.70
2007,10,24,12,28,9.70
2007,10,24,12,29,9.80
2007,10,24,12,30,9.80
2007,10,24,12,31,9.80
2007,10,24,12,32,9.90
2007,10,24,12,33,10.00
2007,10,24,12,34,10.00
2007,10,24,12,35,10.10
2007,10,24,12,36,10.10
2007,10,24,12,37,10.10
2007,10,24,12,38,10.20
2007,10,24,12,39,10.20
2007,10,24,12,40,10.20
2007,10,24,12,41,10.30
2007,10,24,12,42,10.30
2007,10,24,12,43,10.40
2007,10,24,12,44,10.40
2007,10,24,12,45,10.40
2007,10,24,12,46,10.40
2007,10,24,12,47,10.50
2007,10,24,12,48,10.50
2007,10,24,12,49,10.50
2007,10,24,12,50,10.50
2007,10,24,12,51,10.50
2007,10,24,12,52,10.40
2007,10,24,12,53,10.40
2007,10,24,12,54,10.40
2007,10,24,12,55,10.50
2007,10,24,12,56,10.60
2007,10,24,12,57,10.60
2007,10,24,12,58,10.70
2007,10,24,12,59,10.60
2007,10,24,13,00,10.60
2007,10,24,13,01,10.50
2007,10,24,13,02,10.40
2007,10,24,13,03,10.40
2007,10,24,13,04,10.40
2007,10,24,13,05,10.40
2007,10,24,13,06,10.40
2007,10,24,13,07,10.40
2007,10,24,13,08,10.50
2007,10,24,13,09,10.50
2007,10,24,13,10,10.50
2007,10,24,13,11,10.50
2007,10,24,13,12,10.40
2007,10,24,13,13,10.40
2007,10,24,13,14,10.40
2007,10,24,13,15,10.40
2007,10,24,13,16,10.40
2007,10,24,13,17,10.50
2007,10,24,13,18,10.50
2007,10,24,13,19,10.60
2007,10,24,13,20,10.60
2007,10,24,13,21,10.70
2007,10,24,13,22,10.70
2007,10,24,13,23,10.80
2007,10,24,13,24,10.80
2007,10,24,13,25,10.90
2007,10,24,13,26,10.90
2007,10,24,13,27,10.80
2007,10,24,13,28,10.80
2007,10,24,13,29,10.80
2007,10,24,13,30,10.80
2007,10,24,13,31,10.70
2007,10,24,13,32,10.70
2007,10,24,13,33,10.60
2007,10,24,13,34,10.60
2007,10,24,13,35,10.70
2007,10,24,13,36,10.70
2007,10,24,13,37,10.70
2007,10,24,13,38,10.80
2007,10,24,13,39,10.80
2007,10,24,13,40,10.80
2007,10,24,13,41,10.80
2007,10,24,13,42,10.80
2007,10,24,13,43,10.80
2007,10,24,13,44,10.80
2007,10,24,13,45,10.80
2007,10,24,13,46,10.80
2007,10,24,13,47,10.80
2007,10,24,13,48,10.80
2007,10,24,13,49,10.80
2007,10,24,13,50,10.80
2007,10,24,13,51,10.80
2007,10,24,13,52,10.80
2007,10,24,13,53,10.80
2007,10,24,13,54,10.90
2007,10,24,13,55,10.90
2007,10,24,13,56,10.90
2007,10,24,13,57,10.90
2007,10,24,13,58,10.90
2007,10,24,13,59,11.00
2007,10,24,14,00,11.00
2007,10,24,14,01,11.10
2007,10,24,14,02,11.10
2007,10,24,14,03,11.20
2007,10,24,14,04,11.20
2007,10,24,14,05,11.20
2007,10,24,14,06,11.20
2007,10,24,14,07,11.10
2007,10,24,14,08,11.10
2007,10,24,14,09,11.10
2007,10,24,14,10,11.10
2007,10,24,14,11,11.10
2007,10,24,14,12,11.10
2007,10,24,14,13,11.20
2007,10,24,14,14,11.20
2007,10,24,14,15,11.10
2007,10,24,14,16,11.10
2007,10,24,14,17,11.10
2007,10,24,14,18,11.10
2007,10,24,14,19,11.10
2007,10,24,14,20,11.10
2007,10,24,14,21,11.10
2007,10,24,14,22,11.10
2007,10,24,14,23,11.10
2007,10,24,14,24,11.10
2007,10,24,14,25,11.10
2007,10,24,14,26,11.20
2007,10,24,14,27,11.20
2007,10,24,14,28,11.10
2007,10,24,14,29,11.10
2007,10,24,14,30,11.10
2007,10,24,14,31,11.10
2007,10,24,14,32,11.10
2007,10,24,14,33,11.20
2007,10,24,14,34,11.20
2007,10,24,14,35,11.20
2007,10,24,14,36,11.30
2007,10,24,14,37,11.30
2007,10,24,14,38,11.30
2007,10,24,14,39,11.20
2007,10,24,14,40,11.20
2007,10,24,14,41,11.20
2007,10,24,14,42,11.10
2007,10,24,14,43,11.10
2007,10,24,14,44,11.20
2007,10,24,14,45,11.20
2007,10,24,14,46,11.20
2007,10,24,14,47,11.20
2007,10,24,14,48,11.20
2007,10,24,14,49,11.20
2007,10,24,14,50,11.30
2007,10,24,14,51,11.30
2007,10,24,14,52,11.30
2007,10,24,14,53,11.30
2007,10,24,14,54,11.30
2007,10,24,14,55,11.20
2007,10,24,14,56,11.20
2007,10,24,14,57,11.10
2007,10,24,14,58,11.00
2007,10,24,14,59,11.00
2007,10,24,15,00,10.90
2007,10,24,15,01,10.80
2007,10,24,15,02,10.80
2007,10,24,15,03,10.80
2007,10,24,15,04,10.70
2007,10,24,15,05,10.70
2007,10,24,15,06,10.60
2007,10,24,15,07,10.60
2007,10,24,15,08,10.60
2007,10,24,15,09,10.60
2007,10,24,15,10,10.60
2007,10,24,15,11,10.60
2007,10,24,15,12,10.70
2007,10,24,15,13,10.70
2007,10,24,15,14,10.70
2007,10,24,15,15,10.70
2007,10,24,15,16,10.70
2007,10,24,15,17,10.70
2007,10,24,15,18,10.70
2007,10,24,15,19,10.70
2007,10,24,15,20,10.70
2007,10,24,15,21,10.80
2007,10,24,15,22,10.80
2007,10,24,15,23,10.70
2007,10,24,15,24,10.70
2007,10,24,15,25,10.70
2007,10,24,15,26,10.70
2007,10,24,15,27,10.70
2007,10,24,15,28,10.70
2007,10,24,15,29,10.70
2007,10,24,15,30,10.70
2007,10,24,15,31,10.80
2007,10,24,15,32,10.70
2007,10,24,15,33,10.70
2007,10,24,15,34,10.70
2007,10,24,15,35,10.70
2007,10,24,15,36,10.60
2007,10,24,15,37,10.60
2007,10,24,15,38,10.60
2007,10,24,15,39,10.60
2007,10,24,15,40,10.60
2007,10,24,15,41,10.60
2007,10,24,15,42,10.60
2007,10,24,15,43,10.50
2007,10,24,15,44,10.50
2007,10,24,15,45,10.50
2007,10,24,15,46,10.40
2007,10,24,15,47,10.40
2007,10,24,15,48,10.40
2007,10,24,15,49,10.40
2007,10,24,15,50,10.30
2007,10,24,15,51,10.30
2007,10,24,15,52,10.30
2007,10,24,15,53,10.20
2007,10,24,15,54,10.20
2007,10,24,15,55,10.10
2007,10,24,15,56,10.10
2007,10,24,15,57,10.10
2007,10,24,15,58,10.00
2007,10,24,15,59,10.00
2007,10,24,16,00,9.90
2007,10,24,16,01,9.90
2007,10,24,16,02,9.90
2007,10,24,16,03,9.90
2007,10,24,16,04,9.80
2007,10,24,16,05,9.80
2007,10,24,16,06,9.80
2007,10,24,16,07,9.80
2007,10,24,16,08,9.80
2007,10,24,16,09,9.80
2007,10,24,16,10,9.80
2007,10,24,16,11,9.80
2007,10,24,16,12,9.80
2007,10,24,16,13,9.80
2007,10,24,16,14,9.80
2007,10,24,16,15,9.90
2007,10,24,16,16,9.90
2007,10,24,16,17,9.90
2007,10,24,16,18,9.90
2007,10,24,16,19,9.90
2007,10,24,16,20,9.90
2007,10,24,16,21,9.90
2007,10,24,16,22,9.90
2007,10,24,16,23,9.90
2007,10,24,16,24,9.90
2007,10,24,16,25,9.90
2007,10,24,16,26,9.80
2007,10,24,16,27,9.80
2007,10,24,16,28,9.80
2007,10,24,16,29,9.80
2007,10,24,16,30,9.80
2007,10,24,16,31,9.80
2007,10,24,16,32,9.80
2007,10,24,16,33,9.80
2007,10,24,16,34,9.80
2007,10,24,16,35,9.80
2007,10,24,16,36,9.70
2007,10,24,16,37,9.70
2007,10,24,16,38,9.60
2007,10,24,16,39,9.60
2007,10,24,16,40,9.60
2007,10,24,16,41,9.60
2007,10,24,16,42,9.60
2007,10,24,16,43,9.50
2007,10,24,16,44,9.50
2007,10,24,16,45,9.50
2007,10,24,16,46,9.40
2007,10,24,16,47,9.40
2007,10,24,16,48,9.40
2007,10,24,16,49,9.30
2007,10,24,16,50,9.30
2007,10,24,16,51,9.30
2007,10,24,16,52,9.30
2007,10,24,16,53,9.30
2007,10,24,16,54,9.30
2007,10,24,16,55,9.30
2007,10,24,16,56,9.30
2007,10,24,16,57,9.30
2007,10,24,16,58,9.30
2007,10,24,16,59,9.30
2007,10,24,17,00,9.30
2007,10,24,17,01,9.30
2007,10,24,17,02,9.30
2007,10,24,17,03,9.30
2007,10,24,17,04,9.30
2007,10,24,17,05,9.30
2007,10,24,17,06,9.30
2007,10,24,17,07,9.20
2007,10,24,17,08,9.20
2007,10,24,17,09,9.20
2007,10,24,17,10,9.20
2007,10,24,17,11,9.20
2007,10,24,17,12,9.20
2007,10,24,17,13,9.20
2007,10,24,17,14,9.20
2007,10,24,17,15,9.30
2007,10,24,17,16,9.30
2007,10,24,17,17,9.30
2007,10,24,17,18,9.30
2007,10,24,17,19,9.30
2007,10,24,17,20,9.30
2007,10,24,17,21,9.30
2007,10,24,17,22,9.30
2007,10,24,17,23,9.40
2007,10,24,17,24,9.40
2007,10,24,17,25,9.40
2007,10,24,17,26,9.40
2007,10,24,17,27,9.40
2007,10,24,17,28,9.40
2007,10,24,17,29,9.40